Volver al catálogo

CZ-6A DEB

ActivoPO
NORAD 64645·DEBRIS·🇨🇳 China

Lanzado Aug 6, 2024 desde Taiyuan Satellite Launch Center

Loading…

Próximos Pases (próximas 24 horas)

TLE

ActualizadoSource: Space-Track

Época: Sep 14, 2026, 06:26 UTC

1 64645U 24140AEK 26257.26860668  .00001655  00000-0  85513-3 0  9992
2 64645  88.3266 205.8729 0088910 289.8360  69.3258 14.12557253 99720

Sigue CZ-6A DEB en tiempo real con AllMySat

Download on the App Store